| time (UTC) | temp F | wind direction | speed knots | gust knots | rain 1hr in | rain 24hr in | rain mn in | humidity % | barometer mb |
| 20260510193943 | 84 | 287 | 1.7 | 10.4 | 0.00 | 0.00 | 0.00 | 80 | 1016.1 |
| 20260510193438 | 84 | 284 | 5.2 | 14.8 | 0.00 | 0.00 | 0.00 | 80 | 1016.2 |
| 20260510192934 | 84 | 255 | 3.5 | 10.4 | 0.00 | 0.00 | 0.00 | 78 | 1015.9 |
| 20260510192429 | 85 | 252 | 9.6 | 14.8 | 0.00 | 0.00 | 0.00 | 77 | 1016.1 |
| 20260510191925 | 85 | 267 | 5.2 | 14.8 | 0.00 | 0.00 | 0.00 | 78 | 1016.2 |
| 20260510191421 | 85 | 268 | 8.7 | 13.0 | 0.00 | 0.00 | 0.00 | 77 | 1015.9 |
| 20260510190919 | 85 | 278 | 6.1 | 13.9 | 0.00 | 0.00 | 0.00 | 78 | 1015.9 |
| 20260510190416 | 85 | 242 | 6.1 | 13.9 | 0.00 | 0.00 | 0.00 | 78 | 1015.9 |
| 20260510185912 | 86 | 287 | 8.7 | 13.9 | 0.00 | 0.00 | 0.00 | 76 | 1016.0 |
| 20260510185410 | 85 | 296 | 10.4 | 13.0 | 0.00 | 0.00 | 0.00 | 78 | 1016.1 |
| 20260510184907 | 84 | 245 | 8.7 | 12.2 | 0.00 | 0.00 | 0.00 | 79 | 1016.1 |
| 20260510184404 | 86 | 269 | 7.0 | 9.6 | 0.00 | 0.00 | 0.00 | 77 | 1016.1 |
| 20260510183904 | 86 | 235 | 4.3 | 13.9 | 0.00 | 0.00 | 0.00 | 76 | 1016.1 |
| 20260510183401 | 86 | 279 | 5.2 | 13.9 | 0.00 | 0.00 | 0.00 | 77 | 1016.1 |
| 20260510182901 | 86 | 249 | 5.2 | 7.8 | 0.00 | 0.00 | 0.00 | 75 | 1016.2 |
| 20260510182357 | 87 | 246 | 2.6 | 7.0 | 0.00 | 0.00 | 0.00 | 75 | 1016.4 |
| 20260510181853 | 85 | 273 | 7.0 | 8.7 | 0.00 | 0.00 | 0.00 | 78 | 1016.5 |
| 20260510181351 | 84 | 255 | 3.5 | 13.0 | 0.00 | 0.00 | 0.00 | 80 | 1016.5 |
| 20260510180847 | 85 | 292 | 7.8 | 12.2 | 0.00 | 0.00 | 0.00 | 77 | 1016.6 |
| 20260510180344 | 86 | 227 | 6.1 | 12.2 | 0.00 | 0.00 | 0.00 | 77 | 1016.4 |
| 20260510175841 | 86 | 240 | 3.5 | 10.4 | 0.00 | 0.00 | 0.00 | 76 | 1016.3 |
| 20260510175337 | 86 | 202 | 8.7 | 11.3 | 0.00 | 0.00 | 0.00 | 76 | 1016.4 |
| 20260510174833 | 86 | 280 | 2.6 | 9.6 | 0.00 | 0.00 | 0.00 | 77 | 1016.3 |
| 20260510174331 | 85 | 258 | 12.2 | 13.0 | 0.00 | 0.00 | 0.00 | 79 | 1016.5 |
| 20260510173827 | 86 | 269 | 7.8 | 11.3 | 0.00 | 0.00 | 0.00 | 79 | 1016.8 |
| 20260510173323 | 86 | 246 | 7.0 | 14.8 | 0.00 | 0.00 | 0.00 | 79 | 1016.6 |
| 20260510172819 | 86 | 268 | 6.1 | 13.0 | 0.00 | 0.00 | 0.00 | 78 | 1016.5 |
| 20260510172315 | 85 | 262 | 6.1 | 11.3 | 0.00 | 0.00 | 0.00 | 78 | 1016.7 |
| 20260510171812 | 85 | 272 | 7.8 | 15.6 | 0.00 | 0.00 | 0.00 | 80 | 1016.8 |
| 20260510171309 | 86 | 260 | 5.2 | 13.9 | 0.00 | 0.00 | 0.00 | 79 | 1016.7 |
| 20260510170806 | 86 | 293 | 8.7 | 9.6 | 0.00 | 0.00 | 0.00 | 78 | 1017.0 |
| 20260510170302 | 86 | 285 | 6.1 | 11.3 | 0.00 | 0.00 | 0.00 | 77 | 1016.8 |
| 20260510165758 | 86 | 268 | 5.2 | 7.8 | 0.00 | 0.00 | 0.00 | 78 | 1016.6 |
| 20260510165254 | 86 | 299 | 12.2 | 15.6 | 0.00 | 0.00 | 0.00 | 77 | 1017.0 |
| 20260510164752 | 87 | 251 | 5.2 | 11.3 | 0.00 | 0.00 | 0.00 | 75 | 1016.9 |
| 20260510164249 | 87 | 257 | 7.8 | 10.4 | 0.00 | 0.00 | 0.00 | 75 | 1016.8 |
| 20260510163749 | 87 | 272 | 3.5 | 11.3 | 0.00 | 0.00 | 0.00 | 73 | 1016.7 |
| 20260510163245 | 87 | 297 | 7.8 | 13.0 | 0.00 | 0.00 | 0.00 | 75 | 1016.8 |
| 20260510162745 | 87 | 259 | 5.2 | 14.8 | 0.00 | 0.00 | 0.00 | 74 | 1016.7 |
| 20260510162242 | 87 | 210 | 0.9 | 7.8 | 0.00 | 0.00 | 0.00 | 75 | 1016.7 |
| 20260510161738 | 87 | 224 | 1.7 | 7.8 | 0.00 | 0.00 | 0.00 | 72 | 1016.8 |
| 20260510161234 | 88 | 264 | 3.5 | 7.0 | 0.00 | 0.00 | 0.00 | 72 | 1016.8 |
| 20260510160732 | 87 | 268 | 2.6 | 11.3 | 0.00 | 0.00 | 0.00 | 72 | 1016.8 |
| 20260510160227 | 87 | 262 | 4.3 | 7.0 | 0.00 | 0.00 | 0.00 | 70 | 1016.9 |
| 20260510155723 | 88 | 221 | 0.9 | 6.1 | 0.00 | 0.00 | 0.00 | 68 | 1016.8 |
| 20260510155219 | 87 | 262 | 6.1 | 6.1 | 0.00 | 0.00 | 0.00 | 69 | 1016.8 |
| 20260510154715 | 86 | 293 | 7.8 | 8.7 | 0.00 | 0.00 | 0.00 | 72 | 1016.8 |
| 20260510154211 | 87 | 264 | 1.7 | 5.2 | 0.00 | 0.00 | 0.00 | 69 | 1017.1 |
| 20260510153706 | 88 | 204 | 3.5 | 8.7 | 0.00 | 0.00 | 0.00 | 70 | 1016.7 |
| 20260510153202 | 87 | 256 | 5.2 | 5.2 | 0.00 | 0.00 | 0.00 | 69 | 1016.5 |
| 20260510152659 | 86 | 217 | 5.2 | 9.6 | 0.00 | 0.00 | 0.00 | 70 | 1016.7 |
| 20260510152155 | 86 | 214 | 6.1 | 9.6 | 0.00 | 0.00 | 0.00 | 69 | 1016.6 |
| 20260510151652 | 87 | 215 | 2.6 | 4.3 | 0.00 | 0.00 | 0.00 | 68 | 1016.5 |
| 20260510151151 | 87 | 259 | 1.7 | 10.4 | 0.00 | 0.00 | 0.00 | 67 | 1016.6 |
| 20260510150646 | 86 | 214 | 5.2 | 7.8 | 0.00 | 0.00 | 0.00 | 70 | 1016.8 |
| 20260510150141 | 87 | 217 | 5.2 | 9.6 | 0.00 | 0.00 | 0.00 | 69 | 1016.9 |
| 20260510145638 | 87 | 223 | 6.1 | 10.4 | 0.00 | 0.00 | 0.00 | 67 | 1016.7 |
| 20260510145134 | 87 | 228 | 1.7 | 3.5 | 0.00 | 0.00 | 0.00 | 69 | 1016.5 |
| 20260510144630 | 86 | 165 | 4.3 | 7.8 | 0.00 | 0.00 | 0.00 | 70 | 1016.7 |
| 20260510144127 | 86 | 281 | 1.7 | 6.1 | 0.00 | 0.00 | 0.00 | 72 | 1016.8 |
| 20260510143622 | 86 | 268 | 1.7 | 5.2 | 0.00 | 0.00 | 0.00 | 74 | 1016.8 |
| 20260510143119 | 85 | 206 | 11.3 | 12.2 | 0.00 | 0.00 | 0.00 | 74 | 1016.9 |
| 20260510142616 | 85 | 204 | 1.7 | 7.0 | 0.00 | 0.00 | 0.00 | 74 | 1016.8 |
| 20260510142113 | 84 | 194 | 7.8 | 8.7 | 0.00 | 0.00 | 0.00 | 76 | 1016.7 |
| 20260510141609 | 84 | 211 | 6.1 | 8.7 | 0.00 | 0.00 | 0.00 | 77 | 1016.3 |
| 20260510141108 | 84 | 193 | 5.2 | 6.1 | 0.00 | 0.00 | 0.00 | 77 | 1016.4 |
| 20260510140603 | 83 | 165 | 6.1 | 8.7 | 0.00 | 0.00 | 0.00 | 79 | 1016.4 |
| 20260510135558 | 82 | 187 | 7.8 | 8.7 | 0.00 | 0.00 | 0.00 | 79 | 1016.5 |
| 20260510135054 | 82 | 170 | 1.7 | 8.7 | 0.00 | 0.00 | 0.00 | 80 | 1016.3 |
| 20260510134551 | 82 | 169 | 5.2 | 8.7 | 0.00 | 0.00 | 0.00 | 80 | 1016.3 |
| 20260510134048 | 82 | 185 | 5.2 | 6.1 | 0.00 | 0.00 | 0.00 | 80 | 1016.5 |
| 20260510133544 | 81 | 171 | 7.0 | 9.6 | 0.00 | 0.00 | 0.00 | 81 | 1016.7 |
| 20260510133040 | 81 | 153 | 8.7 | 8.7 | 0.00 | 0.00 | 0.00 | 81 | 1016.7 |
| 20260510132537 | 80 | 179 | 6.1 | 7.8 | 0.00 | 0.00 | 0.00 | 82 | 1016.5 |
| 20260510132034 | 81 | 195 | 2.6 | 5.2 | 0.00 | 0.00 | 0.00 | 82 | 1016.4 |
| 20260510131532 | 80 | 155 | 3.5 | 6.1 | 0.00 | 0.00 | 0.00 | 82 | 1016.4 |
| 20260510131029 | 80 | 168 | 4.3 | 7.8 | 0.00 | 0.00 | 0.00 | 83 | 1016.4 |
| 20260510130525 | 79 | 149 | 3.5 | 4.3 | 0.00 | 0.00 | 0.00 | 84 | 1016.4 |
| 20260510130023 | 79 | 180 | 3.5 | 8.7 | 0.00 | 0.00 | 0.00 | 84 | 1016.4 |
| 20260510125519 | 79 | 140 | 5.2 | 9.6 | 0.00 | 0.00 | 0.00 | 84 | 1016.3 |
| 20260510125015 | 78 | 200 | 2.6 | 7.0 | 0.00 | 0.00 | 0.00 | 85 | 1016.0 |
| 20260510124512 | 78 | 183 | 6.1 | 9.6 | 0.00 | 0.00 | 0.00 | 85 | 1016.2 |
| 20260510124010 | 78 | 176 | 6.1 | 6.1 | 0.00 | 0.00 | 0.00 | 85 | 1016.0 |
| 20260510123510 | 78 | 175 | 6.1 | 7.8 | 0.00 | 0.00 | 0.00 | 86 | 1016.0 |
| 20260510123006 | 77 | 196 | 4.3 | 7.8 | 0.00 | 0.00 | 0.00 | 87 | 1016.0 |
| 20260510122502 | 77 | 166 | 6.1 | 7.0 | 0.00 | 0.00 | 0.00 | 87 | 1016.0 |
| 20260510121958 | 77 | 136 | 2.6 | 3.5 | 0.00 | 0.00 | 0.00 | 88 | 1015.9 |
| 20260510121455 | 76 | 176 | 3.5 | 5.2 | 0.00 | 0.00 | 0.00 | 89 | 1015.9 |
| 20260510120952 | 76 | 172 | 3.5 | 4.3 | 0.00 | 0.00 | 0.00 | 90 | 1015.9 |
| 20260510120450 | 75 | 184 | 3.5 | 5.2 | 0.00 | 0.00 | 0.00 | 91 | 1015.6 |
| 20260510115945 | 75 | 175 | 3.5 | 4.3 | 0.00 | 0.00 | 0.00 | 91 | 1015.7 |
| 20260510115443 | 75 | 177 | 0.9 | 5.2 | 0.00 | 0.00 | 0.00 | 92 | 1015.6 |
| 20260510114938 | 75 | 157 | 1.7 | 4.3 | 0.00 | 0.00 | 0.00 | 93 | 1015.5 |
| 20260510114436 | 74 | 179 | 4.3 | 5.2 | 0.00 | 0.00 | 0.00 | 94 | 1015.4 |
| 20260510113931 | 74 | 187 | 3.5 | 5.2 | 0.00 | 0.00 | 0.00 | 94 | 1015.4 |
| 20260510113427 | 74 | 159 | 1.7 | 5.2 | 0.00 | 0.00 | 0.00 | 94 | 1015.5 |
| 20260510112925 | 74 | 181 | 2.6 | 4.3 | 0.00 | 0.00 | 0.00 | 95 | 1015.3 |
| 20260510112422 | 74 | 198 | 0.9 | 5.2 | 0.00 | 0.00 | 0.00 | 95 | 1015.1 |
| 20260510111918 | 73 | 180 | 4.3 | 5.2 | 0.00 | 0.00 | 0.00 | 95 | 1015.1 |
| 20260510111414 | 73 | 188 | 2.6 | 4.3 | 0.00 | 0.00 | 0.00 | 96 | 1015.0 |
| 20260510110909 | 73 | 166 | 1.7 | 6.1 | 0.00 | 0.00 | 0.00 | 96 | 1015.1 |
| 20260510110401 | 73 | 214 | 2.6 | 3.5 | 0.00 | 0.00 | 0.00 | 97 | 1015.0 |
| 20260510105857 | 73 | 160 | 2.6 | 3.5 | 0.00 | 0.00 | 0.00 | 97 | 1014.7 |
| 20260510105356 | 73 | 146 | 1.7 | 4.3 | 0.00 | 0.00 | 0.00 | 97 | 1014.4 |
| 20260510104852 | 73 | 167 | 2.6 | 5.2 | 0.00 | 0.00 | 0.00 | 97 | 1014.7 |
| 20260510104350 | 73 | 180 | 0.9 | 2.6 | 0.00 | 0.00 | 0.00 | 97 | 1014.5 |
| 20260510103846 | 73 | 176 | 1.7 | 3.5 | 0.00 | 0.00 | 0.00 | 97 | 1014.5 |
| 20260510103343 | 73 | 175 | 0.9 | 2.6 | 0.00 | 0.00 | 0.00 | 97 | 1014.4 |
| 20260510102839 | 73 | 166 | 0.9 | 2.6 | 0.00 | 0.00 | 0.00 | 96 | 1014.5 |
| 20260510102335 | 73 | 184 | 0.0 | 1.7 | 0.00 | 0.00 | 0.00 | 96 | 1014.4 |
| 20260510101832 | 73 | 187 | 1.7 | 1.7 | 0.00 | 0.00 | 0.00 | 96 | 1014.5 |
| 20260510101330 | 73 | 199 | 1.7 | 1.7 | 0.00 | 0.00 | 0.00 | 96 | 1014.7 |
| 20260510100826 | 73 | 180 | 1.7 | 1.7 | 0.00 | 0.00 | 0.00 | 96 | 1014.2 |
| 20260510100324 | 73 | 102 | 0.0 | 0.0 | 0.00 | 0.00 | 0.00 | 96 | 1014.1 |
| 20260510095820 | 73 | 72 | 0.0 | 0.9 | 0.00 | 0.00 | 0.00 | 95 | 1014.2 |
| 20260510095315 | 73 | 183 | 0.0 | 1.7 | 0.00 | 0.00 | 0.00 | 95 | 1014.1 |
| 20260510094814 | 73 | 188 | 0.0 | 2.6 | 0.00 | 0.00 | 0.00 | 95 | 1014.0 |
| 20260510094310 | 73 | 206 | 1.7 | 1.7 | 0.00 | 0.00 | 0.00 | 95 | 1014.0 |
| 20260510093806 | 73 | 186 | 0.0 | 1.7 | 0.00 | 0.00 | 0.00 | 95 | 1014.0 |
| 20260510093303 | 73 | 154 | 0.0 | 0.9 | 0.00 | 0.00 | 0.00 | 95 | 1014.1 |
| 20260510092759 | 73 | 111 | 0.0 | 1.7 | 0.00 | 0.00 | 0.00 | 95 | 1013.9 |
| 20260510092255 | 73 | 29 | 0.0 | 0.0 | 0.00 | 0.00 | 0.00 | 95 | 1013.7 |
| 20260510091750 | 73 | 190 | 0.0 | 1.7 | 0.00 | 0.00 | 0.00 | 94 | 1013.6 |
| 20260510091248 | 73 | 155 | 0.0 | 0.0 | 0.00 | 0.00 | 0.00 | 94 | 1013.8 |
| 20260510090744 | 73 | 179 | 0.9 | 2.6 | 0.00 | 0.00 | 0.00 | 94 | 1013.6 |
| 20260510090242 | 73 | 120 | 1.7 | 3.5 | 0.00 | 0.00 | 0.00 | 94 | 1013.6 |
| 20260510085737 | 73 | 100 | 0.9 | 1.7 | 0.00 | 0.00 | 0.00 | 94 | 1013.7 |
| 20260510085231 | 73 | 153 | 0.9 | 2.6 | 0.00 | 0.00 | 0.00 | 94 | 1013.4 |
| 20260510084728 | 74 | 100 | 1.7 | 1.7 | 0.00 | 0.00 | 0.00 | 94 | 1013.5 |
| 20260510084225 | 74 | 55 | 0.0 | 1.7 | 0.00 | 0.00 | 0.00 | 94 | 1013.5 |
| 20260510083721 | 74 | 149 | 0.0 | 0.9 | 0.00 | 0.00 | 0.00 | 94 | 1013.4 |
| 20260510083219 | 74 | 89 | 0.0 | 1.7 | 0.00 | 0.00 | 0.00 | 93 | 1013.5 |
| 20260510082714 | 74 | 174 | 0.0 | 1.7 | 0.00 | 0.00 | 0.00 | 93 | 1013.5 |
| 20260510082211 | 74 | 150 | 1.7 | 3.5 | 0.00 | 0.00 | 0.00 | 93 | 1013.2 |
| 20260510081704 | 74 | 166 | 0.9 | 1.7 | 0.00 | 0.00 | 0.00 | 93 | 1013.3 |
| 20260510081201 | 74 | 149 | 2.6 | 3.5 | 0.00 | 0.00 | 0.00 | 93 | 1013.2 |
| 20260510080700 | 74 | 164 | 0.0 | 2.6 | 0.00 | 0.00 | 0.00 | 93 | 1013.4 |
| 20260510080157 | 74 | 135 | 0.9 | 3.5 | 0.00 | 0.00 | 0.00 | 93 | 1013.2 |
| 20260510075654 | 74 | 113 | 1.7 | 6.1 | 0.00 | 0.00 | 0.00 | 93 | 1013.3 |
| 20260510075152 | 74 | 156 | 2.6 | 2.6 | 0.00 | 0.00 | 0.00 | 93 | 1013.2 |
| 20260510074649 | 74 | 174 | 1.7 | 4.3 | 0.00 | 0.00 | 0.00 | 94 | 1013.1 |
| 20260510074144 | 74 | 172 | 3.5 | 4.3 | 0.00 | 0.00 | 0.00 | 94 | 1013.3 |
| 20260510073641 | 74 | 154 | 1.7 | 3.5 | 0.00 | 0.00 | 0.00 | 94 | 1013.4 |
| 20260510073137 | 74 | 174 | 2.6 | 2.6 | 0.00 | 0.00 | 0.00 | 94 | 1013.3 |
| 20260510072633 | 74 | 152 | 2.6 | 4.3 | 0.00 | 0.00 | 0.00 | 94 | 1013.5 |
| 20260510072130 | 74 | 136 | 1.7 | 4.3 | 0.00 | 0.00 | 0.00 | 94 | 1013.5 |
| 20260510071626 | 74 | 123 | 0.9 | 3.5 | 0.00 | 0.00 | 0.00 | 94 | 1013.6 |
| 20260510071124 | 74 | 86 | 0.9 | 3.5 | 0.00 | 0.00 | 0.00 | 94 | 1013.6 |
| 20260510070621 | 74 | 132 | 3.5 | 5.2 | 0.00 | 0.00 | 0.00 | 94 | 1013.8 |
| 20260510070119 | 74 | 159 | 4.3 | 4.3 | 0.00 | 0.00 | 0.00 | 94 | 1013.8 |
| 20260510065614 | 74 | 141 | 2.6 | 6.1 | 0.00 | 0.00 | 0.00 | 95 | 1013.8 |
| 20260510065110 | 74 | 119 | 0.9 | 4.3 | 0.00 | 0.00 | 0.00 | 95 | 1013.8 |
| 20260510064607 | 74 | 170 | 1.7 | 4.3 | 0.00 | 0.00 | 0.00 | 95 | 1013.7 |
| 20260510064104 | 74 | 111 | 0.0 | 3.5 | 0.00 | 0.00 | 0.00 | 95 | 1013.8 |
| 20260510063601 | 74 | 96 | 1.7 | 3.5 | 0.00 | 0.00 | 0.00 | 95 | 1014.0 |
| 20260510063058 | 74 | 153 | 2.6 | 2.6 | 0.00 | 0.00 | 0.00 | 95 | 1014.1 |
| 20260510062553 | 74 | 96 | 1.7 | 1.7 | 0.00 | 0.00 | 0.00 | 95 | 1014.1 |
| 20260510062049 | 74 | 164 | 1.7 | 1.7 | 0.00 | 0.00 | 0.00 | 95 | 1014.2 |
| 20260510061545 | 74 | 224 | 0.0 | 1.7 | 0.00 | 0.00 | 0.00 | 95 | 1014.2 |
| 20260510061042 | 74 | 89 | 0.0 | 0.0 | 0.00 | 0.00 | 0.00 | 96 | 1014.2 |
| 20260510060538 | 74 | 333 | 0.0 | 0.9 | 0.00 | 0.00 | 0.00 | 95 | 1014.4 |
| 20260510060035 | 74 | 89 | 0.0 | 0.9 | 0.00 | 0.00 | 0.00 | 95 | 1014.3 |
| 20260510055531 | 74 | 92 | 0.9 | 1.7 | 0.00 | 0.00 | 0.00 | 95 | 1014.4 |
| 20260510055029 | 74 | 77 | 0.0 | 1.7 | 0.00 | 0.00 | 0.00 | 96 | 1014.5 |
| 20260510054525 | 74 | 87 | 0.0 | 0.9 | 0.00 | 0.00 | 0.00 | 96 | 1014.7 |
| 20260510054020 | 74 | 89 | 1.7 | 1.7 | 0.00 | 0.00 | 0.00 | 96 | 1014.7 |
| 20260510053515 | 73 | 104 | 0.9 | 2.6 | 0.00 | 0.00 | 0.00 | 96 | 1014.7 |
| 20260510053012 | 73 | 155 | 0.9 | 3.5 | 0.00 | 0.00 | 0.00 | 97 | 1014.8 |
| 20260510052508 | 73 | 97 | 1.7 | 2.6 | 0.00 | 0.00 | 0.00 | 97 | 1014.9 |
| 20260510052004 | 73 | 89 | 0.9 | 2.6 | 0.00 | 0.00 | 0.00 | 97 | 1014.7 |
| 20260510051500 | 73 | 83 | 0.0 | 1.7 | 0.00 | 0.00 | 0.00 | 97 | 1015.0 |
| 20260510050956 | 73 | 85 | 0.9 | 1.7 | 0.00 | 0.00 | 0.00 | 97 | 1015.0 |
| 20260510050454 | 73 | 75 | 1.7 | 1.7 | 0.00 | 0.00 | 0.00 | 97 | 1015.0 |
| 20260510045951 | 73 | 62 | 0.0 | 1.7 | 0.00 | 0.00 | 0.00 | 97 | 1015.0 |
| 20260510045448 | 73 | 55 | 0.0 | 2.6 | 0.00 | 0.00 | 0.00 | 97 | 1014.7 |
| 20260510044944 | 74 | 85 | 1.7 | 2.6 | 0.00 | 0.00 | 0.00 | 98 | 1015.1 |
| 20260510044441 | 74 | 65 | 1.7 | 1.7 | 0.00 | 0.00 | 0.00 | 98 | 1014.9 |
| 20260510043938 | 74 | 78 | 0.9 | 2.6 | 0.00 | 0.00 | 0.00 | 98 | 1015.0 |
| 20260510043434 | 74 | 76 | 1.7 | 2.6 | 0.00 | 0.00 | 0.00 | 98 | 1015.1 |
| 20260510042932 | 74 | 84 | 0.0 | 1.7 | 0.00 | 0.00 | 0.00 | 98 | 1015.2 |
| 20260510042428 | 74 | 91 | 1.7 | 2.6 | 0.00 | 0.00 | 0.00 | 98 | 1015.2 |
| 20260510041924 | 74 | 31 | 1.7 | 3.5 | 0.00 | 0.00 | 0.00 | 98 | 1015.4 |
| 20260510041421 | 74 | 60 | 1.7 | 1.7 | 0.00 | 0.00 | 0.00 | 98 | 1015.3 |
| 20260510040919 | 74 | 51 | 1.7 | 3.5 | 0.00 | 0.00 | 0.00 | 98 | 1015.3 |
| 20260510040415 | 75 | 31 | 0.9 | 1.7 | 0.00 | 0.00 | 0.00 | 98 | 1015.3 |
| 20260510035911 | 75 | 4 | 1.7 | 2.6 | 0.00 | 0.03 | 0.03 | 98 | 1015.2 |
| 20260510035408 | 75 | 1 | 1.7 | 2.6 | 0.00 | 0.03 | 0.03 | 98 | 1015.2 |
| 20260510034902 | 75 | 6 | 3.5 | 3.5 | 0.00 | 0.03 | 0.03 | 98 | 1015.2 |
| 20260510034401 | 75 | 30 | 0.0 | 0.9 | 0.00 | 0.03 | 0.03 | 98 | 1015.3 |
| 20260510033857 | 75 | 8 | 0.9 | 1.7 | 0.00 | 0.03 | 0.03 | 98 | 1015.1 |
| 20260510033354 | 75 | 350 | 2.6 | 2.6 | 0.00 | 0.03 | 0.03 | 98 | 1015.1 |
| 20260510032850 | 76 | 321 | 1.7 | 1.7 | 0.00 | 0.03 | 0.03 | 97 | 1014.9 |
| 20260510032347 | 75 | 129 | 0.0 | 0.9 | 0.00 | 0.03 | 0.03 | 97 | 1014.9 |
| 20260510031843 | 75 | 131 | 0.0 | 1.7 | 0.00 | 0.03 | 0.03 | 97 | 1015.0 |
| 20260510031338 | 76 | 146 | 0.0 | 0.9 | 0.00 | 0.03 | 0.03 | 97 | 1014.8 |
| 20260510030838 | 76 | 155 | 1.7 | 1.7 | 0.00 | 0.03 | 0.03 | 96 | 1015.0 |
| 20260510030334 | 76 | 89 | 0.0 | 0.9 | 0.00 | 0.03 | 0.03 | 96 | 1014.7 |
| 20260510025832 | 76 | 104 | 0.0 | 0.9 | 0.00 | 0.03 | 0.03 | 96 | 1014.8 |
| 20260510025329 | 76 | 28 | 1.7 | 1.7 | 0.00 | 0.03 | 0.03 | 95 | 1014.8 |
| 20260510024826 | 76 | 0 | 0.0 | 1.7 | 0.00 | 0.03 | 0.03 | 95 | 1014.7 |
| 20260510024323 | 76 | 342 | 1.7 | 1.7 | 0.00 | 0.03 | 0.03 | 94 | 1014.9 |
| 20260510023819 | 76 | 45 | 0.9 | 1.7 | 0.02 | 0.03 | 0.03 | 93 | 1014.9 |
| 20260510023315 | 77 | 114 | 0.0 | 0.9 | 0.09 | 0.03 | 0.03 | 91 | 1014.8 |
| 20260510022813 | 77 | 131 | 1.7 | 1.7 | 0.12 | 0.02 | 0.02 | 89 | 1014.9 |
| 20260510022312 | 78 | 205 | 0.0 | 0.9 | 0.02 | 0.01 | 0.01 | 88 | 1015.0 |
| 20260510021811 | 77 | 191 | 3.5 | 3.5 | 0.00 | 0.00 | 0.00 | 88 | 1014.8 |
| 20260510021310 | 77 | 181 | 1.7 | 1.7 | 0.00 | 0.00 | 0.00 | 88 | 1014.7 |
| 20260510020805 | 77 | 189 | 1.7 | 1.7 | 0.00 | 0.00 | 0.00 | 88 | 1014.5 |
| 20260510020305 | 77 | 169 | 0.9 | 0.9 | 0.00 | 0.00 | 0.00 | 88 | 1014.6 |
| 20260510015802 | 77 | 32 | 0.0 | 0.0 | 0.00 | 0.00 | 0.00 | 88 | 1014.5 |
| 20260510015258 | 77 | 224 | 0.0 | 0.0 | 0.00 | 0.00 | 0.00 | 88 | 1014.4 |
| 20260510014753 | 77 | 119 | 0.0 | 0.0 | 0.00 | 0.00 | 0.00 | 88 | 1014.3 |
| 20260510014250 | 77 | 70 | 0.0 | 0.9 | 0.00 | 0.00 | 0.00 | 88 | 1014.1 |
| 20260510013746 | 77 | 353 | 0.0 | 1.7 | 0.00 | 0.00 | 0.00 | 88 | 1014.3 |
| 20260510013242 | 77 | 348 | 1.7 | 1.7 | 0.00 | 0.00 | 0.00 | 87 | 1014.3 |
| 20260510012737 | 77 | 326 | 0.9 | 1.7 | 0.00 | 0.00 | 0.00 | 87 | 1014.2 |
| 20260510012232 | 78 | 345 | 0.9 | 1.7 | 0.00 | 0.00 | 0.00 | 86 | 1014.1 |
| 20260510011731 | 78 | 269 | 0.0 | 0.0 | 0.00 | 0.00 | 0.00 | 86 | 1014.3 |
| 20260510011227 | 78 | 271 | 0.0 | 0.0 | 0.00 | 0.00 | 0.00 | 85 | 1014.3 |
| 20260510010725 | 78 | 211 | 0.9 | 0.9 | 0.00 | 0.00 | 0.00 | 85 | 1013.9 |
| 20260510010221 | 78 | 313 | 0.9 | 0.9 | 0.00 | 0.00 | 0.00 | 85 | 1013.8 |
| 20260510005718 | 79 | 293 | 0.0 | 0.0 | 0.00 | 0.00 | 0.00 | 84 | 1013.6 |
| 20260510005214 | 79 | 288 | 0.0 | 0.9 | 0.00 | 0.00 | 0.00 | 84 | 1013.8 |
| 20260510004707 | 79 | 225 | 1.7 | 2.6 | 0.00 | 0.00 | 0.00 | 84 | 1013.9 |
| 20260510004205 | 79 | 206 | 1.7 | 2.6 | 0.00 | 0.00 | 0.00 | 83 | 1013.8 |
| 20260510003702 | 79 | 293 | 1.7 | 3.5 | 0.00 | 0.00 | 0.00 | 83 | 1013.8 |
| 20260510003158 | 79 | 319 | 2.6 | 3.5 | 0.00 | 0.00 | 0.00 | 83 | 1013.7 |
| 20260510002657 | 79 | 349 | 2.6 | 2.6 | 0.00 | 0.00 | 0.00 | 83 | 1013.5 |
| 20260510002154 | 80 | 298 | 1.7 | 3.5 | 0.00 | 0.00 | 0.00 | 83 | 1013.6 |
| 20260510001651 | 80 | 321 | 2.6 | 2.6 | 0.00 | 0.00 | 0.00 | 82 | 1013.4 |
| 20260510001150 | 80 | 337 | 3.5 | 4.3 | 0.00 | 0.00 | 0.00 | 82 | 1013.5 |
| 20260510000650 | 80 | 298 | 4.3 | 6.1 | 0.00 | 0.00 | 0.00 | 82 | 1013.5 |
| 20260510000148 | 80 | 246 | 0.0 | 1.7 | 0.00 | 0.00 | 0.00 | 82 | 1013.5 |
| 20260509235644 | 80 | 283 | 1.7 | 3.5 | 0.00 | 0.00 | 0.00 | 82 | 1013.3 |
| 20260509235141 | 80 | 258 | 2.6 | 3.5 | 0.00 | 0.00 | 0.00 | 81 | 1013.3 |
| 20260509234637 | 80 | 343 | 1.7 | 2.6 | 0.00 | 0.00 | 0.00 | 81 | 1013.2 |
| 20260509234134 | 80 | 293 | 1.7 | 5.2 | 0.00 | 0.00 | 0.00 | 81 | 1013.3 |
| 20260509233632 | 80 | 272 | 3.5 | 5.2 | 0.00 | 0.00 | 0.00 | 81 | 1013.5 |
| 20260509233129 | 80 | 294 | 1.7 | 3.5 | 0.00 | 0.00 | 0.00 | 80 | 1013.2 |
| 20260509232625 | 80 | 312 | 5.2 | 7.8 | 0.00 | 0.00 | 0.00 | 80 | 1013.2 |
| 20260509232122 | 81 | 280 | 3.5 | 10.4 | 0.00 | 0.00 | 0.00 | 80 | 1013.1 |
| 20260509231619 | 81 | 285 | 1.7 | 3.5 | 0.00 | 0.00 | 0.00 | 78 | 1013.2 |
| 20260509231117 | 81 | 310 | 5.2 | 5.2 | 0.00 | 0.00 | 0.00 | 77 | 1013.2 |
| 20260509230613 | 81 | 311 | 9.6 | 12.2 | 0.00 | 0.00 | 0.00 | 76 | 1013.1 |
| 20260509230111 | 81 | 312 | 9.6 | 12.2 | 0.00 | 0.00 | 0.00 | 76 | 1013.0 |
| 20260509225606 | 82 | 272 | 4.3 | 8.7 | 0.00 | 0.00 | 0.00 | 75 | 1013.2 |
| 20260509225101 | 82 | 290 | 5.2 | 7.0 | 0.00 | 0.00 | 0.00 | 74 | 1012.9 |
| 20260509224557 | 82 | 300 | 8.7 | 11.3 | 0.00 | 0.00 | 0.00 | 74 | 1013.1 |
| 20260509224055 | 82 | 313 | 7.8 | 11.3 | 0.00 | 0.00 | 0.00 | 74 | 1012.9 |
| 20260509223551 | 82 | 286 | 10.4 | 13.0 | 0.00 | 0.00 | 0.00 | 74 | 1013.0 |
| 20260509223049 | 82 | 268 | 3.5 | 7.8 | 0.00 | 0.00 | 0.00 | 73 | 1012.8 |
| 20260509222545 | 83 | 311 | 5.2 | 6.1 | 0.00 | 0.00 | 0.00 | 73 | 1012.9 |
| 20260509222041 | 83 | 291 | 4.3 | 7.8 | 0.00 | 0.00 | 0.00 | 71 | 1012.8 |
| 20260509221537 | 83 | 296 | 7.0 | 7.8 | 0.00 | 0.00 | 0.00 | 70 | 1012.8 |
| 20260509221033 | 83 | 253 | 7.0 | 9.6 | 0.00 | 0.00 | 0.00 | 72 | 1012.6 |
| 20260509220529 | 83 | 254 | 1.7 | 7.8 | 0.00 | 0.00 | 0.00 | 71 | 1012.7 |
| 20260509220025 | 84 | 292 | 3.5 | 13.0 | 0.00 | 0.00 | 0.00 | 70 | 1012.5 |
| 20260509215521 | 84 | 269 | 4.3 | 8.7 | 0.00 | 0.00 | 0.00 | 68 | 1012.5 |
| 20260509215018 | 84 | 251 | 4.3 | 7.0 | 0.00 | 0.00 | 0.00 | 68 | 1012.2 |
| 20260509214515 | 85 | 216 | 3.5 | 6.1 | 0.00 | 0.00 | 0.00 | 67 | 1012.3 |
| 20260509214012 | 84 | 255 | 4.3 | 9.6 | 0.00 | 0.00 | 0.00 | 69 | 1012.2 |
| 20260509213508 | 85 | 271 | 5.2 | 7.0 | 0.00 | 0.00 | 0.00 | 67 | 1012.3 |
| 20260509213006 | 85 | 219 | 5.2 | 15.6 | 0.00 | 0.00 | 0.00 | 66 | 1012.3 |
| 20260509212502 | 85 | 207 | 10.4 | 11.3 | 0.00 | 0.00 | 0.00 | 64 | 1012.3 |
| 20260509211959 | 85 | 256 | 7.8 | 11.3 | 0.00 | 0.00 | 0.00 | 64 | 1012.3 |
| 20260509211454 | 85 | 245 | 6.1 | 7.0 | 0.00 | 0.00 | 0.00 | 67 | 1012.2 |
| 20260509210951 | 85 | 286 | 2.6 | 11.3 | 0.00 | 0.00 | 0.00 | 67 | 1012.1 |
| 20260509210449 | 86 | 290 | 8.7 | 10.4 | 0.00 | 0.00 | 0.00 | 64 | 1011.9 |
| 20260509205944 | 87 | 296 | 11.3 | 13.0 | 0.00 | 0.00 | 0.00 | 64 | 1011.9 |
| 20260509205439 | 87 | 254 | 3.5 | 12.2 | 0.00 | 0.00 | 0.00 | 64 | 1012.1 |
| 20260509204935 | 86 | 239 | 4.3 | 11.3 | 0.00 | 0.00 | 0.00 | 61 | 1012.1 |
| 20260509204431 | 87 | 260 | 6.1 | 12.2 | 0.00 | 0.00 | 0.00 | 61 | 1012.0 |
| 20260509203928 | 87 | 243 | 2.6 | 9.6 | 0.00 | 0.00 | 0.00 | 61 | 1012.1 |
| 20260509203424 | 87 | 251 | 6.1 | 8.7 | 0.00 | 0.00 | 0.00 | 60 | 1012.0 |
| 20260509202922 | 87 | 221 | 10.4 | 12.2 | 0.00 | 0.00 | 0.00 | 59 | 1012.0 |
| 20260509202417 | 87 | 263 | 7.8 | 13.0 | 0.00 | 0.00 | 0.00 | 60 | 1012.2 |
| 20260509201912 | 87 | 242 | 11.3 | 12.2 | 0.00 | 0.00 | 0.00 | 61 | 1011.9 |
| 20260509201408 | 87 | 218 | 7.8 | 13.9 | 0.00 | 0.00 | 0.00 | 61 | 1012.1 |
| 20260509200905 | 87 | 257 | 5.2 | 14.8 | 0.00 | 0.00 | 0.00 | 60 | 1012.0 |
| 20260509200359 | 87 | 269 | 3.5 | 12.2 | 0.00 | 0.00 | 0.00 | 60 | 1012.0 |
| 20260509195856 | 87 | 298 | 6.1 | 12.2 | 0.00 | 0.00 | 0.00 | 60 | 1012.2 |
| 20260509195356 | 87 | 251 | 11.3 | 14.8 | 0.00 | 0.00 | 0.00 | 59 | 1012.0 |
| 20260509194856 | 87 | 249 | 8.7 | 11.3 | 0.00 | 0.00 | 0.00 | 60 | 1012.0 |
| 20260509194353 | 87 | 280 | 3.5 | 18.2 | 0.00 | 0.00 | 0.00 | 58 | 1012.0 |